Location: Bieg
(49.3499°N, 10.3835°E)
Time: 12:10:40
(UTC+00:00)

CZ-2C R/B - Pass Details

Date: 23 May 2024
Orbit: 784 x 868 km, 98.3° (Epoch: 24 June)

Event Time Altitude Azimuth Distance (km) Brightness Sun altitude
Exits shadow 00:47:48 - 146° (SE) 2,432 4.8 -17.0°
Reaches altitude 10° 00:48:02 10° 145° (SE) 2,339 4.7 -17.0°
Maximum altitude 00:53:03 54° 69° (ENE) 949 3.2 -16.7°
Drops below altitude 10° 00:58:06 10° 353° (N) 2,364 5.9 -16.4°
Sets 01:00:29 0° 350° (N) 3,304 6.7 -16.2°
